Year,Month,Day,Hour,Minute,Value (Times are PST for temperature in C)
2019,08,14,00,00,15.50
2019,08,14,00,01,15.40
2019,08,14,00,02,15.40
2019,08,14,00,03,15.40
2019,08,14,00,04,15.40
2019,08,14,00,05,15.40
2019,08,14,00,06,15.40
2019,08,14,00,07,15.40
2019,08,14,00,08,15.40
2019,08,14,00,09,15.30
2019,08,14,00,10,15.30
2019,08,14,00,11,15.30
2019,08,14,00,12,15.30
2019,08,14,00,13,15.30
2019,08,14,00,14,15.30
2019,08,14,00,15,15.20
2019,08,14,00,16,15.20
2019,08,14,00,17,15.20
2019,08,14,00,18,15.20
2019,08,14,00,19,15.20
2019,08,14,00,20,15.20
2019,08,14,00,21,15.20
2019,08,14,00,22,15.20
2019,08,14,00,23,15.10
2019,08,14,00,24,15.10
2019,08,14,00,25,15.10
2019,08,14,00,26,15.10
2019,08,14,00,27,15.10
2019,08,14,00,28,15.10
2019,08,14,00,29,15.10
2019,08,14,00,30,15.00
2019,08,14,00,31,15.00
2019,08,14,00,32,15.00
2019,08,14,00,33,15.00
2019,08,14,00,34,15.00
2019,08,14,00,35,14.90
2019,08,14,00,36,14.90
2019,08,14,00,37,14.90
2019,08,14,00,38,14.90
2019,08,14,00,39,14.90
2019,08,14,00,40,14.90
2019,08,14,00,41,14.90
2019,08,14,00,42,14.90
2019,08,14,00,43,14.80
2019,08,14,00,44,14.80
2019,08,14,00,45,14.80
2019,08,14,00,46,14.80
2019,08,14,00,47,14.80
2019,08,14,00,48,14.80
2019,08,14,00,49,14.80
2019,08,14,00,50,14.80
2019,08,14,00,51,14.70
2019,08,14,00,52,14.70
2019,08,14,00,53,14.70
2019,08,14,00,54,14.70
2019,08,14,00,55,14.70
2019,08,14,00,56,14.70
2019,08,14,00,57,14.60
2019,08,14,00,58,14.60
2019,08,14,00,59,14.60
2019,08,14,01,00,14.60
2019,08,14,01,01,14.60
2019,08,14,01,02,14.60
2019,08,14,01,03,14.60
2019,08,14,01,04,14.50
2019,08,14,01,05,14.50
2019,08,14,01,06,14.50
2019,08,14,01,07,14.50
2019,08,14,01,08,14.50
2019,08,14,01,09,14.40
2019,08,14,01,10,14.40
2019,08,14,01,11,14.40
2019,08,14,01,12,14.40
2019,08,14,01,13,14.40
2019,08,14,01,14,14.40
2019,08,14,01,15,14.40
2019,08,14,01,16,14.30
2019,08,14,01,17,14.30
2019,08,14,01,18,14.30
2019,08,14,01,19,14.30
2019,08,14,01,20,14.30
2019,08,14,01,21,14.30
2019,08,14,01,22,14.30
2019,08,14,01,23,14.30
2019,08,14,01,24,14.30
2019,08,14,01,25,14.30
2019,08,14,01,26,14.30
2019,08,14,01,27,14.30
2019,08,14,01,28,14.20
2019,08,14,01,29,14.20
2019,08,14,01,30,14.20
2019,08,14,01,31,14.20
2019,08,14,01,32,14.20
2019,08,14,01,33,14.20
2019,08,14,01,34,14.20
2019,08,14,01,35,14.20
2019,08,14,01,36,14.20
2019,08,14,01,37,14.20
2019,08,14,01,38,14.10
2019,08,14,01,39,14.10
2019,08,14,01,40,14.10
2019,08,14,01,41,14.10
2019,08,14,01,42,14.10
2019,08,14,01,43,14.10
2019,08,14,01,44,14.10
2019,08,14,01,45,14.10
2019,08,14,01,46,14.10
2019,08,14,01,47,14.10
2019,08,14,01,48,14.00
2019,08,14,01,49,14.00
2019,08,14,01,50,14.00
2019,08,14,01,51,14.00
2019,08,14,01,52,14.00
2019,08,14,01,53,14.00
2019,08,14,01,54,14.00
2019,08,14,01,55,13.90
2019,08,14,01,56,13.90
2019,08,14,01,57,13.90
2019,08,14,01,58,13.90
2019,08,14,01,59,13.90
2019,08,14,02,00,13.90
2019,08,14,02,01,13.90
2019,08,14,02,02,13.90
2019,08,14,02,03,13.90
2019,08,14,02,04,13.80
2019,08,14,02,05,13.80
2019,08,14,02,06,13.80
2019,08,14,02,07,13.80
2019,08,14,02,08,13.80
2019,08,14,02,09,13.80
2019,08,14,02,10,13.80
2019,08,14,02,11,13.80
2019,08,14,02,12,13.80
2019,08,14,02,13,13.70
2019,08,14,02,14,13.70
2019,08,14,02,15,13.70
2019,08,14,02,16,13.70
2019,08,14,02,17,13.70
2019,08,14,02,18,13.70
2019,08,14,02,19,13.70
2019,08,14,02,20,13.70
2019,08,14,02,21,13.70
2019,08,14,02,22,13.70
2019,08,14,02,23,13.60
2019,08,14,02,24,13.60
2019,08,14,02,25,13.60
2019,08,14,02,26,13.60
2019,08,14,02,27,13.60
2019,08,14,02,28,13.60
2019,08,14,02,29,13.60
2019,08,14,02,30,13.60
2019,08,14,02,31,13.60
2019,08,14,02,32,13.60
2019,08,14,02,33,13.60
2019,08,14,02,34,13.60
2019,08,14,02,35,13.60
2019,08,14,02,36,13.50
2019,08,14,02,37,13.50
2019,08,14,02,38,13.50
2019,08,14,02,39,13.50
2019,08,14,02,40,13.50
2019,08,14,02,41,13.50
2019,08,14,02,42,13.40
2019,08,14,02,43,13.40
2019,08,14,02,44,13.40
2019,08,14,02,45,13.40
2019,08,14,02,46,13.40
2019,08,14,02,47,13.40
2019,08,14,02,48,13.40
2019,08,14,02,49,13.40
2019,08,14,02,50,13.30
2019,08,14,02,51,13.30
2019,08,14,02,52,13.30
2019,08,14,02,53,13.30
2019,08,14,02,54,13.30
2019,08,14,02,55,13.30
2019,08,14,02,56,13.30
2019,08,14,02,57,13.30
2019,08,14,02,58,13.30
2019,08,14,02,59,13.30
2019,08,14,03,00,13.30
2019,08,14,03,01,13.30
2019,08,14,03,02,13.30
2019,08,14,03,03,13.30
2019,08,14,03,04,13.20
2019,08,14,03,05,13.20
2019,08,14,03,06,13.20
2019,08,14,03,07,13.20
2019,08,14,03,08,13.20
2019,08,14,03,09,13.20
2019,08,14,03,10,13.20
2019,08,14,03,11,13.20
2019,08,14,03,12,13.10
2019,08,14,03,13,13.10
2019,08,14,03,14,13.10
2019,08,14,03,15,13.10
2019,08,14,03,16,13.10
2019,08,14,03,17,13.10
2019,08,14,03,18,13.10
2019,08,14,03,19,13.10
2019,08,14,03,20,13.10
2019,08,14,03,21,13.10
2019,08,14,03,22,13.10
2019,08,14,03,23,13.00
2019,08,14,03,24,13.00
2019,08,14,03,25,13.00
2019,08,14,03,26,13.00
2019,08,14,03,27,13.00
2019,08,14,03,28,13.00
2019,08,14,03,29,12.90
2019,08,14,03,30,12.90
2019,08,14,03,31,12.90
2019,08,14,03,32,12.90
2019,08,14,03,33,12.90
2019,08,14,03,34,12.90
2019,08,14,03,35,12.90
2019,08,14,03,36,12.90
2019,08,14,03,37,12.90
2019,08,14,03,38,12.90
2019,08,14,03,39,12.90
2019,08,14,03,40,12.90
2019,08,14,03,41,12.90
2019,08,14,03,42,12.90
2019,08,14,03,43,12.90
2019,08,14,03,44,12.80
2019,08,14,03,45,12.80
2019,08,14,03,46,12.80
2019,08,14,03,47,12.80
2019,08,14,03,48,12.80
2019,08,14,03,49,12.80
2019,08,14,03,50,12.80
2019,08,14,03,51,12.80
2019,08,14,03,52,12.80
2019,08,14,03,53,12.80
2019,08,14,03,54,12.80
2019,08,14,03,55,12.80
2019,08,14,03,56,12.80
2019,08,14,03,57,12.80
2019,08,14,03,58,12.80
2019,08,14,03,59,12.80
2019,08,14,04,00,12.80
2019,08,14,04,01,12.80
2019,08,14,04,02,12.80
2019,08,14,04,03,12.80
2019,08,14,04,04,12.80
2019,08,14,04,05,12.80
2019,08,14,04,06,12.80
2019,08,14,04,07,12.70
2019,08,14,04,08,12.70
2019,08,14,04,09,12.70
2019,08,14,04,10,12.70
2019,08,14,04,11,12.70
2019,08,14,04,12,12.70
2019,08,14,04,13,12.60
2019,08,14,04,14,12.60
2019,08,14,04,15,12.60
2019,08,14,04,16,12.60
2019,08,14,04,17,12.60
2019,08,14,04,18,12.60
2019,08,14,04,19,12.60
2019,08,14,04,20,12.60
2019,08,14,04,21,12.60
2019,08,14,04,22,12.60
2019,08,14,04,23,12.50
2019,08,14,04,24,12.50
2019,08,14,04,25,12.50
2019,08,14,04,26,12.50
2019,08,14,04,27,12.50
2019,08,14,04,28,12.40
2019,08,14,04,29,12.40
2019,08,14,04,30,12.40
2019,08,14,04,31,12.40
2019,08,14,04,32,12.40
2019,08,14,04,33,12.30
2019,08,14,04,34,12.30
2019,08,14,04,35,12.30
2019,08,14,04,36,12.30
2019,08,14,04,37,12.30
2019,08,14,04,38,12.30
2019,08,14,04,39,12.30
2019,08,14,04,40,12.30
2019,08,14,04,41,12.30
2019,08,14,04,42,12.30
2019,08,14,04,43,12.30
2019,08,14,04,44,12.30
2019,08,14,04,45,12.30
2019,08,14,04,46,12.30
2019,08,14,04,47,12.30
2019,08,14,04,48,12.30
2019,08,14,04,49,12.30
2019,08,14,04,50,12.30
2019,08,14,04,51,12.20
2019,08,14,04,52,12.20
2019,08,14,04,53,12.20
2019,08,14,04,54,12.20
2019,08,14,04,55,12.20
2019,08,14,04,56,12.20
2019,08,14,04,57,12.20
2019,08,14,04,58,12.20
2019,08,14,04,59,12.20
2019,08,14,05,00,12.20
2019,08,14,05,01,12.20
2019,08,14,05,02,12.20
2019,08,14,05,03,12.20
2019,08,14,05,04,12.20
2019,08,14,05,05,12.20
2019,08,14,05,06,12.20
2019,08,14,05,07,12.20
2019,08,14,05,08,12.20
2019,08,14,05,09,12.20
2019,08,14,05,10,12.20
2019,08,14,05,11,12.20
2019,08,14,05,12,12.20
2019,08,14,05,13,12.20
2019,08,14,05,14,12.20
2019,08,14,05,15,12.20
2019,08,14,05,16,12.20
2019,08,14,05,17,12.10
2019,08,14,05,18,12.10
2019,08,14,05,19,12.10
2019,08,14,05,20,12.10
2019,08,14,05,21,12.10
2019,08,14,05,22,12.10
2019,08,14,05,23,12.10
2019,08,14,05,24,12.10
2019,08,14,05,25,12.10
2019,08,14,05,26,12.10
2019,08,14,05,27,12.10
2019,08,14,05,28,12.10
2019,08,14,05,29,12.10
2019,08,14,05,30,12.10
2019,08,14,05,31,12.10
2019,08,14,05,32,12.10
2019,08,14,05,33,12.10
2019,08,14,05,34,12.10
2019,08,14,05,35,12.10
2019,08,14,05,36,12.10
2019,08,14,05,37,12.10
2019,08,14,05,38,12.10
2019,08,14,05,39,12.10
2019,08,14,05,40,12.10
2019,08,14,05,41,12.10
2019,08,14,05,42,12.10
2019,08,14,05,43,12.10
2019,08,14,05,44,12.10
2019,08,14,05,45,12.10
2019,08,14,05,46,12.10
2019,08,14,05,47,12.10
2019,08,14,05,48,12.10
2019,08,14,05,49,12.10
2019,08,14,05,50,12.20
2019,08,14,05,51,12.20
2019,08,14,05,52,12.20
2019,08,14,05,53,12.10
2019,08,14,05,54,12.10
2019,08,14,05,55,12.10
2019,08,14,05,56,12.10
2019,08,14,05,57,12.10
2019,08,14,05,58,12.10
2019,08,14,05,59,12.10
2019,08,14,06,00,12.10
2019,08,14,06,01,12.10
2019,08,14,06,02,12.10
2019,08,14,06,03,12.10
2019,08,14,06,04,12.10
2019,08,14,06,05,12.10
2019,08,14,06,06,12.10
2019,08,14,06,07,12.10
2019,08,14,06,08,12.10
2019,08,14,06,09,12.10
2019,08,14,06,10,12.10
2019,08,14,06,11,12.10
2019,08,14,06,12,12.00
2019,08,14,06,13,12.00
2019,08,14,06,14,12.00
2019,08,14,06,15,12.00
2019,08,14,06,16,12.00
2019,08,14,06,17,12.00
2019,08,14,06,18,12.00
2019,08,14,06,19,12.00
2019,08,14,06,20,12.00
2019,08,14,06,21,12.00
2019,08,14,06,22,12.00
2019,08,14,06,23,12.00
2019,08,14,06,24,12.00
2019,08,14,06,25,12.00
2019,08,14,06,26,12.00
2019,08,14,06,27,12.00
2019,08,14,06,28,12.00
2019,08,14,06,29,12.10
2019,08,14,06,30,12.10
2019,08,14,06,31,12.10
2019,08,14,06,32,12.10
2019,08,14,06,33,12.10
2019,08,14,06,34,12.10
2019,08,14,06,35,12.10
2019,08,14,06,36,12.10
2019,08,14,06,37,12.10
2019,08,14,06,38,12.10
2019,08,14,06,39,12.10
2019,08,14,06,40,12.20
2019,08,14,06,41,12.20
2019,08,14,06,42,12.20
2019,08,14,06,43,12.20
2019,08,14,06,44,12.20
2019,08,14,06,45,12.20
2019,08,14,06,46,12.30
2019,08,14,06,47,12.30
2019,08,14,06,48,12.30
2019,08,14,06,49,12.30
2019,08,14,06,50,12.30
2019,08,14,06,51,12.30
2019,08,14,06,52,12.30
2019,08,14,06,53,12.40
2019,08,14,06,54,12.40
2019,08,14,06,55,12.40
2019,08,14,06,56,12.40
2019,08,14,06,57,12.40
2019,08,14,06,58,12.40
2019,08,14,06,59,12.40
2019,08,14,07,00,12.40
2019,08,14,07,01,12.40
2019,08,14,07,02,12.50
2019,08,14,07,03,12.50
2019,08,14,07,04,12.50
2019,08,14,07,05,12.50
2019,08,14,07,06,12.50
2019,08,14,07,07,12.50
2019,08,14,07,08,12.60
2019,08,14,07,09,12.60
2019,08,14,07,10,12.60
2019,08,14,07,11,12.60
2019,08,14,07,12,12.60
2019,08,14,07,13,12.60
2019,08,14,07,14,12.60
2019,08,14,07,15,12.60
2019,08,14,07,16,12.60
2019,08,14,07,17,12.60
2019,08,14,07,18,12.60
2019,08,14,07,19,12.70
2019,08,14,07,20,12.70
2019,08,14,07,21,12.70
2019,08,14,07,22,12.70
2019,08,14,07,23,12.70
2019,08,14,07,24,12.70
2019,08,14,07,25,12.80
2019,08,14,07,26,12.80
2019,08,14,07,27,12.80
2019,08,14,07,28,12.80
2019,08,14,07,29,12.80
2019,08,14,07,30,12.80
2019,08,14,07,31,12.90
2019,08,14,07,32,12.90
2019,08,14,07,33,12.90
2019,08,14,07,34,12.90
2019,08,14,07,35,12.90
2019,08,14,07,36,13.00
2019,08,14,07,37,13.00
2019,08,14,07,38,13.00
2019,08,14,07,39,13.10
2019,08,14,07,40,13.10
2019,08,14,07,41,13.10
2019,08,14,07,42,13.10
2019,08,14,07,43,13.20
2019,08,14,07,44,13.20
2019,08,14,07,45,13.20
2019,08,14,07,46,13.20
2019,08,14,07,47,13.30
2019,08,14,07,48,13.30
2019,08,14,07,49,13.30
2019,08,14,07,50,13.30
2019,08,14,07,51,13.30
2019,08,14,07,52,13.30
2019,08,14,07,53,13.30
2019,08,14,07,54,13.40
2019,08,14,07,55,13.40
2019,08,14,07,56,13.40
2019,08,14,07,57,13.40
2019,08,14,07,58,13.40
2019,08,14,07,59,13.40
2019,08,14,08,00,13.40
2019,08,14,08,01,13.50
2019,08,14,08,02,13.50
2019,08,14,08,03,13.50
2019,08,14,08,04,13.60
2019,08,14,08,05,13.60
2019,08,14,08,06,13.60
2019,08,14,08,07,13.60
2019,08,14,08,08,13.60
2019,08,14,08,09,13.70
2019,08,14,08,10,13.70
2019,08,14,08,11,13.70
2019,08,14,08,12,13.70
2019,08,14,08,13,13.70
2019,08,14,08,14,13.80
2019,08,14,08,15,13.80
2019,08,14,08,16,13.80
2019,08,14,08,17,13.80
2019,08,14,08,18,13.80
2019,08,14,08,19,13.80
2019,08,14,08,20,13.80
2019,08,14,08,21,13.80
2019,08,14,08,22,13.80
2019,08,14,08,23,13.80
2019,08,14,08,24,13.80
2019,08,14,08,25,13.80
2019,08,14,08,26,13.80
2019,08,14,08,27,13.80
2019,08,14,08,28,13.90
2019,08,14,08,29,13.90
2019,08,14,08,30,13.90
2019,08,14,08,31,13.90
2019,08,14,08,32,13.90
2019,08,14,08,33,13.90
2019,08,14,08,34,13.90
2019,08,14,08,35,13.90
2019,08,14,08,36,13.90
2019,08,14,08,37,13.90
2019,08,14,08,38,14.00
2019,08,14,08,39,14.00
2019,08,14,08,40,14.00
2019,08,14,08,41,14.00
2019,08,14,08,42,14.00
2019,08,14,08,43,14.00
2019,08,14,08,44,14.10
2019,08,14,08,45,14.10
2019,08,14,08,46,14.10
2019,08,14,08,47,14.10
2019,08,14,08,48,14.10
2019,08,14,08,49,14.10
2019,08,14,08,50,14.10
2019,08,14,08,51,14.10
2019,08,14,08,52,14.10
2019,08,14,08,53,14.10
2019,08,14,08,54,14.10
2019,08,14,08,55,14.10
2019,08,14,08,56,14.10
2019,08,14,08,57,14.20
2019,08,14,08,58,14.20
2019,08,14,08,59,14.20
2019,08,14,09,00,14.20
2019,08,14,09,01,14.20
2019,08,14,09,02,14.20
2019,08,14,09,03,14.20
2019,08,14,09,04,14.20
2019,08,14,09,05,14.20
2019,08,14,09,06,14.20
2019,08,14,09,07,14.20
2019,08,14,09,08,14.30
2019,08,14,09,09,14.30
2019,08,14,09,10,14.30
2019,08,14,09,11,14.30
2019,08,14,09,12,14.30
2019,08,14,09,13,14.30
2019,08,14,09,14,14.40
2019,08,14,09,15,14.40
2019,08,14,09,16,14.40
2019,08,14,09,17,14.40
2019,08,14,09,18,14.40
2019,08,14,09,19,14.50
2019,08,14,09,20,14.50
2019,08,14,09,21,14.60
2019,08,14,09,22,14.60
2019,08,14,09,23,14.60
2019,08,14,09,24,14.70
2019,08,14,09,25,14.70
2019,08,14,09,26,14.70
2019,08,14,09,27,14.80
2019,08,14,09,28,14.80
2019,08,14,09,29,14.80
2019,08,14,09,30,14.80
2019,08,14,09,31,14.80
2019,08,14,09,32,14.90
2019,08,14,09,33,14.90
2019,08,14,09,34,14.90
2019,08,14,09,35,14.90
2019,08,14,09,36,14.90
2019,08,14,09,37,15.00
2019,08,14,09,38,15.00
2019,08,14,09,39,15.00
2019,08,14,09,40,15.10
2019,08,14,09,41,15.10
2019,08,14,09,42,15.20
2019,08,14,09,43,15.20
2019,08,14,09,44,15.20
2019,08,14,09,45,15.30
2019,08,14,09,46,15.30
2019,08,14,09,47,15.40
2019,08,14,09,48,15.50
2019,08,14,09,49,15.50
2019,08,14,09,50,15.60
2019,08,14,09,51,15.70
2019,08,14,09,52,15.70
2019,08,14,09,53,15.80
2019,08,14,09,54,15.80
2019,08,14,09,55,15.90
2019,08,14,09,56,16.00
2019,08,14,09,57,16.10
2019,08,14,09,58,16.20
2019,08,14,09,59,16.30
2019,08,14,10,00,16.40
2019,08,14,10,01,16.50
2019,08,14,10,02,16.60
2019,08,14,10,03,16.60
2019,08,14,10,04,16.60
2019,08,14,10,05,16.70
2019,08,14,10,06,16.70
2019,08,14,10,07,16.70
2019,08,14,10,08,16.80
2019,08,14,10,09,16.80
2019,08,14,10,10,16.90
2019,08,14,10,11,16.90
2019,08,14,10,12,17.00
2019,08,14,10,13,17.00
2019,08,14,10,14,17.10
2019,08,14,10,15,17.10
2019,08,14,10,16,17.20
2019,08,14,10,17,17.20
2019,08,14,10,18,17.30
2019,08,14,10,19,17.40
2019,08,14,10,20,17.40
2019,08,14,10,21,17.40
2019,08,14,10,22,17.50
2019,08,14,10,23,17.60
2019,08,14,10,24,17.60
2019,08,14,10,25,17.70
2019,08,14,10,26,17.80
2019,08,14,10,27,18.00
2019,08,14,10,28,18.00
2019,08,14,10,29,18.10
2019,08,14,10,30,18.10
2019,08,14,10,31,18.10
2019,08,14,10,32,18.10
2019,08,14,10,33,18.10
2019,08,14,10,34,18.20
2019,08,14,10,35,18.20
2019,08,14,10,36,18.30
2019,08,14,10,37,18.30
2019,08,14,10,38,18.40
2019,08,14,10,39,18.40
2019,08,14,10,40,18.50
2019,08,14,10,41,18.50
2019,08,14,10,42,18.60
2019,08,14,10,43,18.70
2019,08,14,10,44,18.70
2019,08,14,10,45,18.80
2019,08,14,10,46,18.80
2019,08,14,10,47,18.90
2019,08,14,10,48,18.90
2019,08,14,10,49,19.00
2019,08,14,10,50,19.00
2019,08,14,10,51,19.10
2019,08,14,10,52,19.10
2019,08,14,10,53,19.20
2019,08,14,10,54,19.20
2019,08,14,10,55,19.20
2019,08,14,10,56,19.20
2019,08,14,10,57,19.20
2019,08,14,10,58,19.20
2019,08,14,10,59,19.30
2019,08,14,11,00,19.30
2019,08,14,11,01,19.30
2019,08,14,11,02,19.40
2019,08,14,11,03,19.40
2019,08,14,11,04,19.50
2019,08,14,11,05,19.50
2019,08,14,11,06,19.60
2019,08,14,11,07,19.60
2019,08,14,11,08,19.70
2019,08,14,11,09,19.70
2019,08,14,11,10,19.80
2019,08,14,11,11,19.90
2019,08,14,11,12,19.90
2019,08,14,11,13,20.00
2019,08,14,11,14,20.00
2019,08,14,11,15,20.10
2019,08,14,11,16,20.20
2019,08,14,11,17,20.20
2019,08,14,11,18,20.30
2019,08,14,11,19,20.40
2019,08,14,11,20,20.50
2019,08,14,11,21,20.60
2019,08,14,11,22,20.70
2019,08,14,11,23,20.80
2019,08,14,11,24,20.90
2019,08,14,11,25,21.00
2019,08,14,11,26,21.00
2019,08,14,11,27,21.10
2019,08,14,11,28,21.10
2019,08,14,11,29,21.10
2019,08,14,11,30,21.10
2019,08,14,11,31,21.20
2019,08,14,11,32,21.20
2019,08,14,11,33,21.30
2019,08,14,11,34,21.30
2019,08,14,11,35,21.30
2019,08,14,11,36,21.40
2019,08,14,11,37,21.40
2019,08,14,11,38,21.50
2019,08,14,11,39,21.60
2019,08,14,11,40,21.60
2019,08,14,11,41,21.70
2019,08,14,11,42,21.80
2019,08,14,11,43,21.90
2019,08,14,11,44,21.90
2019,08,14,11,45,21.90
2019,08,14,11,46,21.90
2019,08,14,11,47,21.90
2019,08,14,11,48,22.00
2019,08,14,11,49,22.00
2019,08,14,11,50,22.10
2019,08,14,11,51,22.10
2019,08,14,11,52,22.20
2019,08,14,11,53,22.30
2019,08,14,11,54,22.30
2019,08,14,11,55,22.40
2019,08,14,11,56,22.50
2019,08,14,11,57,22.60
2019,08,14,11,58,22.70
2019,08,14,11,59,22.70
2019,08,14,12,00,22.70
2019,08,14,12,01,22.70
2019,08,14,12,02,22.80
2019,08,14,12,03,22.90
2019,08,14,12,04,23.00
2019,08,14,12,05,23.10
2019,08,14,12,06,23.20
2019,08,14,12,07,23.30
2019,08,14,12,08,23.40
2019,08,14,12,09,23.50
2019,08,14,12,10,23.60
2019,08,14,12,11,23.70
2019,08,14,12,12,23.80
2019,08,14,12,13,23.80
2019,08,14,12,14,23.80
2019,08,14,12,15,23.80
2019,08,14,12,16,23.80
2019,08,14,12,17,23.90
2019,08,14,12,18,23.90
2019,08,14,12,19,24.00
2019,08,14,12,20,24.10
2019,08,14,12,21,24.10
2019,08,14,12,22,24.10
2019,08,14,12,23,24.10
2019,08,14,12,24,24.10
2019,08,14,12,25,24.10
2019,08,14,12,26,24.10
2019,08,14,12,27,24.10
2019,08,14,12,28,24.00
2019,08,14,12,29,24.00
2019,08,14,12,30,24.00
2019,08,14,12,31,24.00
2019,08,14,12,32,24.00
2019,08,14,12,33,24.00
2019,08,14,12,34,24.10
2019,08,14,12,35,24.10
2019,08,14,12,36,24.30
2019,08,14,12,37,24.40
2019,08,14,12,38,24.50
2019,08,14,12,39,24.70
2019,08,14,12,40,24.80
2019,08,14,12,41,24.90
2019,08,14,12,42,25.00
2019,08,14,12,43,25.00
2019,08,14,12,44,25.10
2019,08,14,12,45,25.20
2019,08,14,12,46,25.30
2019,08,14,12,47,25.40
2019,08,14,12,48,25.50
2019,08,14,12,49,25.50
2019,08,14,12,50,25.60
2019,08,14,12,51,25.60
2019,08,14,12,52,25.60
2019,08,14,12,53,25.50
2019,08,14,12,54,25.50
2019,08,14,12,55,25.40
2019,08,14,12,56,25.40
2019,08,14,12,57,25.50
2019,08,14,12,58,25.50
2019,08,14,12,59,25.60
2019,08,14,13,00,25.70
2019,08,14,13,01,25.80
2019,08,14,13,02,25.80
2019,08,14,13,03,25.90
2019,08,14,13,04,25.90
2019,08,14,13,05,26.00
2019,08,14,13,06,26.00
2019,08,14,13,07,26.10
2019,08,14,13,08,26.20
2019,08,14,13,09,26.20
2019,08,14,13,10,26.30
2019,08,14,13,11,26.40
2019,08,14,13,12,26.50
2019,08,14,13,13,26.50
2019,08,14,13,14,26.40
2019,08,14,13,15,26.30
2019,08,14,13,16,26.20
2019,08,14,13,17,26.20
2019,08,14,13,18,26.20
2019,08,14,13,19,26.20
2019,08,14,13,20,26.30
2019,08,14,13,21,26.40
2019,08,14,13,22,26.50
2019,08,14,13,23,26.50
2019,08,14,13,24,26.50
2019,08,14,13,25,26.40
2019,08,14,13,26,26.40
2019,08,14,13,27,26.40
2019,08,14,13,28,26.40
2019,08,14,13,29,26.40
2019,08,14,13,30,26.30
2019,08,14,13,31,26.20
2019,08,14,13,32,26.20
2019,08,14,13,33,26.30
2019,08,14,13,34,26.30
2019,08,14,13,35,26.40
2019,08,14,13,36,26.50
2019,08,14,13,37,26.60
2019,08,14,13,38,26.60
2019,08,14,13,39,26.60
2019,08,14,13,40,26.60
2019,08,14,13,41,26.50
2019,08,14,13,42,26.50
2019,08,14,13,43,26.40
2019,08,14,13,44,26.30
2019,08,14,13,45,26.30
2019,08,14,13,46,26.40
2019,08,14,13,47,26.40
2019,08,14,13,48,26.50
2019,08,14,13,49,26.60
2019,08,14,13,50,26.60
2019,08,14,13,51,26.70
2019,08,14,13,52,26.70
2019,08,14,13,53,26.60
2019,08,14,13,54,26.60
2019,08,14,13,55,26.50
2019,08,14,13,56,26.60
2019,08,14,13,57,26.60
2019,08,14,13,58,26.60
2019,08,14,13,59,26.60
2019,08,14,14,00,26.60
2019,08,14,14,01,26.50
2019,08,14,14,02,26.50
2019,08,14,14,03,26.40
2019,08,14,14,04,26.40
2019,08,14,14,05,26.50
2019,08,14,14,06,26.50
2019,08,14,14,07,26.50
2019,08,14,14,08,26.50
2019,08,14,14,09,26.60
2019,08,14,14,10,26.60
2019,08,14,14,11,26.70
2019,08,14,14,12,26.70
2019,08,14,14,13,26.70
2019,08,14,14,14,26.70
2019,08,14,14,15,26.70
2019,08,14,14,16,26.80
2019,08,14,14,17,26.80
2019,08,14,14,18,26.80
2019,08,14,14,19,26.80
2019,08,14,14,20,26.80
2019,08,14,14,21,26.90
2019,08,14,14,22,27.00
2019,08,14,14,23,27.00
2019,08,14,14,24,27.00
2019,08,14,14,25,26.90
2019,08,14,14,26,26.90
2019,08,14,14,27,26.90
2019,08,14,14,28,26.90
2019,08,14,14,29,26.90
2019,08,14,14,30,26.90
2019,08,14,14,31,27.00
2019,08,14,14,32,27.10
2019,08,14,14,33,27.20
2019,08,14,14,34,27.20
2019,08,14,14,35,27.20
2019,08,14,14,36,27.20
2019,08,14,14,37,27.20
2019,08,14,14,38,27.20
2019,08,14,14,39,27.20
2019,08,14,14,40,27.20
2019,08,14,14,41,27.30
2019,08,14,14,42,27.30
2019,08,14,14,43,27.30
2019,08,14,14,44,27.30
2019,08,14,14,45,27.30
2019,08,14,14,46,27.40
2019,08,14,14,47,27.40
2019,08,14,14,48,27.40
2019,08,14,14,49,27.40
2019,08,14,14,50,27.40
2019,08,14,14,51,27.40
2019,08,14,14,52,27.30
2019,08,14,14,53,27.40
2019,08,14,14,54,27.40
2019,08,14,14,55,27.40
2019,08,14,14,56,27.40
2019,08,14,14,57,27.50
2019,08,14,14,58,27.50
2019,08,14,14,59,27.60
2019,08,14,15,00,27.60
2019,08,14,15,01,27.70
2019,08,14,15,02,27.70
2019,08,14,15,03,27.70
2019,08,14,15,04,27.60
2019,08,14,15,05,27.50
2019,08,14,15,06,27.50
2019,08,14,15,07,27.50
2019,08,14,15,08,27.60
2019,08,14,15,09,27.70
2019,08,14,15,10,27.80
2019,08,14,15,11,27.90
2019,08,14,15,12,27.90
2019,08,14,15,13,27.80
2019,08,14,15,14,27.80
2019,08,14,15,15,27.70
2019,08,14,15,16,27.70
2019,08,14,15,17,27.60
2019,08,14,15,18,27.50
2019,08,14,15,19,27.40
2019,08,14,15,20,27.40
2019,08,14,15,21,27.40
2019,08,14,15,22,27.40
2019,08,14,15,23,27.40
2019,08,14,15,24,27.40
2019,08,14,15,25,27.50
2019,08,14,15,26,27.50
2019,08,14,15,27,27.40
2019,08,14,15,28,27.40
2019,08,14,15,29,27.40
2019,08,14,15,30,27.40
2019,08,14,15,31,27.40
2019,08,14,15,32,27.50
2019,08,14,15,33,27.50
2019,08,14,15,34,27.50
2019,08,14,15,35,27.40
2019,08,14,15,36,27.30
2019,08,14,15,37,27.30
2019,08,14,15,38,27.20
2019,08,14,15,39,27.10
2019,08,14,15,40,27.00
2019,08,14,15,41,26.90
2019,08,14,15,42,27.00
2019,08,14,15,43,27.00
2019,08,14,15,44,27.10
2019,08,14,15,45,27.10
2019,08,14,15,46,27.20
2019,08,14,15,47,27.20
2019,08,14,15,48,27.20
2019,08,14,15,49,27.30
2019,08,14,15,50,27.30
2019,08,14,15,51,27.30
2019,08,14,15,52,27.30
2019,08,14,15,53,27.40
2019,08,14,15,54,27.40
2019,08,14,15,55,27.40
2019,08,14,15,56,27.30
2019,08,14,15,57,27.30
2019,08,14,15,58,27.20
2019,08,14,15,59,27.20
2019,08,14,16,00,27.10
2019,08,14,16,01,27.20
2019,08,14,16,02,27.20
2019,08,14,16,03,27.20
2019,08,14,16,04,27.30
2019,08,14,16,05,27.20
2019,08,14,16,06,27.10
2019,08,14,16,07,27.00
2019,08,14,16,08,26.90
2019,08,14,16,09,26.80
2019,08,14,16,10,26.70
2019,08,14,16,11,26.60
2019,08,14,16,12,26.50
2019,08,14,16,13,26.50
2019,08,14,16,14,26.50
2019,08,14,16,15,26.60
2019,08,14,16,16,26.60
2019,08,14,16,17,26.70
2019,08,14,16,18,26.80
2019,08,14,16,19,26.80
2019,08,14,16,20,26.90
2019,08,14,16,21,27.00
2019,08,14,16,22,27.00
2019,08,14,16,23,27.00
2019,08,14,16,24,26.90
2019,08,14,16,25,26.90
2019,08,14,16,26,26.80
2019,08,14,16,27,26.70
2019,08,14,16,28,26.70
2019,08,14,16,29,26.70
2019,08,14,16,30,26.70
2019,08,14,16,31,26.80
2019,08,14,16,32,26.80
2019,08,14,16,33,26.80
2019,08,14,16,34,26.70
2019,08,14,16,35,26.60
2019,08,14,16,36,26.50
2019,08,14,16,37,26.50
2019,08,14,16,38,26.40
2019,08,14,16,39,26.40
2019,08,14,16,40,26.40
2019,08,14,16,41,26.40
2019,08,14,16,42,26.50
2019,08,14,16,43,26.50
2019,08,14,16,44,26.60
2019,08,14,16,45,26.60
2019,08,14,16,46,26.70
2019,08,14,16,47,26.60
2019,08,14,16,48,26.60
2019,08,14,16,49,26.60
2019,08,14,16,50,26.60
2019,08,14,16,51,26.60
2019,08,14,16,52,26.60
2019,08,14,16,53,26.60
2019,08,14,16,54,26.50
2019,08,14,16,55,26.50
2019,08,14,16,56,26.40
2019,08,14,16,57,26.40
2019,08,14,16,58,26.40
2019,08,14,16,59,26.50
2019,08,14,17,00,26.50
2019,08,14,17,01,26.60
2019,08,14,17,02,26.70
2019,08,14,17,03,26.70
2019,08,14,17,04,26.60
2019,08,14,17,05,26.60
2019,08,14,17,06,26.50
2019,08,14,17,07,26.50
2019,08,14,17,08,26.40
2019,08,14,17,09,26.50
2019,08,14,17,10,26.60
2019,08,14,17,11,26.60
2019,08,14,17,12,26.50
2019,08,14,17,13,26.50
2019,08,14,17,14,26.50
2019,08,14,17,15,26.50
2019,08,14,17,16,26.40
2019,08,14,17,17,26.40
2019,08,14,17,18,26.30
2019,08,14,17,19,26.30